Temperature
13 13 13 13 13 13 13 12 12 11 10 10 9 8 7 7 6 6 5 5 5 4 4 4 3 2 2 1 0 -1 -1 -3 -4 -4 -4 -4 -4 -4 -4 -5 -5 -5 -5
12 12 12 12 12 12 11 11 10 10 9 8 8 7 6 5 5 5 4 4 4 3 3 2 2 1 1 0 -1 -1 -2 -3 -4 -5 -5 -5 -5 -6 -6 -6 -6 -6 -6
11 11 11 11 11 10 10 9 9 8 7 7 6 5 5 4 4 3 3 3 3 2 2 1 1 0 -0 -1 -2 -3 -3 -4 -5 -6 -7 -7 -7 -7 -7 -7 -7 -7 -7
9 9 9 9 9 9 8 8 7 6 6 5 4 4 3 3 3 3 3 2 2 1 1 0 -0 -1 -1 -2 -3 -4 -5 -6 -6 -7 -7 -8 -8 -8 -8 -8 -8 -8 -7
8 8 8 7 7 7 6 5 5 4 3 3 3 2 2 2 2 2 2 1 1 0 -0 -1 -1 -1 -2 -3 -5 -5 -6 -7 -7 -8 -8 -8 -8 -8 -8 -9 -9 -9 -8
6 6 6 5 5 4 4 3 3 2 2 2 2 2 2 2 1 1 1 0 -0 -1 -1 -1 -2 -2 -3 -4 -5 -6 -7 -7 -8 -8 -8 -9 -9 -9 -9 -9 -9 -9 -9
4 3 3 3 2 2 1 1 1 1 1 1 1 1 1 1 1 0 -0 -1 -1 -1 -1 -2 -3 -3 -4 -5 -6 -7 -7 -8 -8 -8 -9 -9 -9 -9 -9 -9 -9 -9 -9
1 1 1 1 0 0 0 0 0 1 1 1 1 1 0 0 -1 -1 -1 -1 -2 -2 -3 -4 -4 -5 -6 -6 -7 -8 -8 -8 -8 -8 -9 -9 -9 -9 -9 -9 -10 -9 -9
-0 -0 -1 -0 -0 -1 -0 -0 0 0 0 0 0 -0 -1 -1 -2 -2 -2 -2 -3 -3 -4 -5 -6 -6 -6 -8 -8 -8 -8 -8 -8 -8 -9 -9 -9 -9 -9 -9 -9 -9 -9
-1 -1 -1 -1 -1 -1 -0 -0 -0 -0 -0 -0 -1 -1 -1 -2 -2 -3 -4 -4 -4 -5 -5 -6 -6 -7 -8 -8 -9 -9 -9 -8 -8 -8 -8 -8 -8 -8 -8 -9 -9 -10 -10
-1 -1 -1 -1 -1 -0 -0 -0 -0 -1 -1 -1 -1 -2 -2 -3 -3 -4 -5 -6 -6 -6 -6 -6 -7 -8 -8 -9 -9 -9 -9 -9 -9 -8 -8 -7 -7 -7 -7 -8 -8 -9 -10
-1 -1 -1 -1 -1 -1 -1 -1 -1 -1 -1 -2 -2 -2 -3 -4 -4 -5 -5 -6 -7 -7 -7 -8 -8 -9 -9 -9 -9 -9 -9 -9 -8 -8 -8 -8 -8 -7 -7 -8 -8 -8 -8
-1 -1 -1 -1 -1 -1 -1 -1 -1 -2 -2 -2 -3 -3 -4 -4 -5 -6 -6 -7 -7 -8 -9 -9 -9 -9 -9 -8 -8 -8 -8 -8 -8 -8 -8 -8 -8 -8 -8 -8 -7 -8 -7
-1 -1 -1 -1 -1 -2 -2 -2 -2 -2 -2 -3 -3 -4 -5 -5 -6 -7 -7 -7 -8 -9 -9 -9 -9 -9 -9 -8 -8 -8 -8 -8 -8 -8 -8 -8 -8 -8 -8 -8 -8 -8 -8
-1 -1 -1 -1 -1 -1 -2 -2 -2 -3 -3 -4 -4 -5 -6 -6 -7 -8 -9 -9 -9 -10 -9 -9 -8 -8 -8 -8 -8 -8 -8 -8 -8 -8 -8 -8 -8 -8 -8 -8 -8 -8 -8
-1 -1 -1 -1 -2 -2 -2 -3 -3 -4 -4 -5 -6 -7 -7 -8 -8 -8 -9 -9 -9 -9 -9 -9 -9 -9 -8 -8 -8 -8 -8 -8 -8 -8 -8 -8 -8 -8 -8 -8 -8 -8 -9
-1 -1 -1 -2 -2 -3 -3 -4 -4 -5 -5 -6 -7 -7 -8 -8 -8 -8 -9 -9 -9 -9 -9 -9 -9 -9 -9 -8 -8 -8 -8 -8 -8 -8 -8 -8 -8 -8 -8 -8 -8 -8 -8
-1 -1 -2 -2 -3 -3 -4 -4 -5 -5 -6 -6 -7 -7 -8 -8 -9 -9 -9 -9 -9 -9 -9 -9 -9 -9 -9 -8 -8 -8 -8 -8 -8 -8 -8 -8 -8 -8 -8 -8 -8 -9 -9
-2 -2 -2 -3 -3 -4 -4 -5 -5 -6 -6 -7 -7 -8 -8 -8 -9 -9 -9 -9 -9 -9 -9 -9 -9 -9 -9 -8 -8 -8 -8 -8 -8 -8 -8 -8 -8 -8 -8 -8 -8 -8 -9
-2 -2 -3 -3 -4 -4 -5 -5 -6 -6 -7 -7 -8 -8 -8 -8 -9 -9 -9 -9 -9 -9 -9 -9 -9 -9 -8 -8 -8 -8 -8 -8 -8 -8 -8 -8 -8 -8 -8 -8 -8 -8 -9
-2 -3 -3 -4 -4 -5 -5 -6 -6 -7 -7 -8 -8 -9 -9 -9 -9 -9 -9 -9 -9 -9 -9 -9 -8 -8 -8 -8 -8 -8 -8 -8 -8 -8 -7 -7 -8 -8 -8 -8 -8 -8 -8
-3 -3 -4 -4 -5 -5 -6 -6 -7 -7 -8 -8 -9 -9 -9 -9 -9 -9 -9 -9 -9 -9 -9 -9 -8 -8 -8 -8 -8 -8 -8 -8 -7 -7 -7 -7 -7 -7 -8 -8 -8 -8 -8
-3 -3 -4 -4 -5 -6 -6 -7 -7 -8 -8 -9 -9 -9 -9 -9 -9 -9 -9 -9 -9 -9 -9 -8 -8 -8 -8 -8 -8 -8 -8 -8 -8 -7 -7 -7 -7 -7 -7 -8 -8 -8 -8
-3 -4 -4 -5 -6 -6 -7 -7 -8 -8 -9 -9 -9 -9 -9 -9 -9 -9 -9 -9 -9 -8 -8 -8 -8 -8 -8 -8 -8 -8 -8 -8 -7 -7 -7 -7 -7 -7 -7 -7 -7 -8 -8
-4 -4 -5 -5 -6 -7 -7 -8 -8 -9 -9 -9 -9 -9 -9 -9 -9 -9 -9 -9 -8 -8 -8 -8 -8 -8 -8 -8 -8 -8 -8 -7 -7 -7 -7 -7 -7 -7 -7 -7 -7 -7 -7
-4 -5 -5 -6 -6 -7 -7 -8 -8 -9 -9 -9 -9 -9 -9 -9 -9 -9 -9 -9 -8 -8 -8 -8 -8 -8 -8 -8 -8 -8 -8 -7 -7 -7 -7 -7 -7 -7 -7 -7 -7 -7 -7
Wind_Speed
6 7 9 9 11 12 11 12 12 12 14 14 14 13 12 11 10 9 7 7 6 4 3 3 2 2 2 3 3 3 4 4 7 6 4 4 6 9 14 18 19 19 19
5 8 9 10 12 12 12 12 13 14 13 14 14 14 13 11 9 9 8 6 5 4 2 1 2 2 3 3 3 4 5 5 6 8 5 5 7 9 9 10 15 18 18
7 9 11 11 12 13 14 14 14 15 14 14 14 14 12 11 9 8 7 6 4 3 1 0 2 3 4 4 5 5 5 6 5 6 8 5 6 8 9 10 11 11 17
8 10 12 11 12 13 14 14 14 15 15 15 14 13 12 10 9 8 7 5 4 3 2 1 3 4 5 5 5 6 6 6 6 6 7 7 7 8 7 9 11 8 11
10 11 11 12 13 14 14 14 15 15 15 15 14 13 11 9 7 7 6 5 3 2 2 3 4 5 6 6 5 5 5 5 5 6 8 8 8 8 9 8 13 12 11
12 12 13 14 15 15 15 16 16 15 14 13 13 11 9 7 9 9 6 4 2 2 3 4 5 5 7 10 12 13 12 8 6 6 7 10 11 10 10 11 13 14 12
13 13 14 15 16 15 16 16 15 13 13 12 10 9 8 8 8 7 6 4 2 2 3 3 4 5 8 6 10 13 12 15 16 11 10 11 13 12 12 13 12 13 15
14 15 15 16 16 15 15 14 13 11 10 9 7 7 6 5 6 5 6 4 2 1 2 2 4 5 7 9 7 6 7 8 12 10 9 11 11 10 11 12 12 12 12
15 15 14 15 15 14 13 12 10 9 8 6 5 5 4 4 5 4 4 3 1 2 4 4 6 6 13 15 9 7 8 9 14 19 20 19 22 23 18 10 9 11 14
14 14 13 13 13 12 11 9 7 6 6 5 5 4 4 2 2 1 2 2 1 3 4 5 9 11 14 16 9 7 9 9 9 10 11 14 13 15 17 8 7 10 11
13 13 12 11 11 10 8 6 6 6 6 5 6 5 5 4 4 5 6 1 1 3 4 4 6 15 17 17 15 7 12 12 6 7 9 9 8 7 7 6 7 9 11
12 12 11 10 8 8 7 6 6 6 7 6 5 5 5 5 6 7 9 9 8 4 5 5 7 16 17 17 12 13 17 14 6 8 8 9 9 9 9 10 10 10 12
11 11 9 9 7 6 6 6 5 5 5 4 4 3 3 3 5 8 9 11 12 6 6 12 14 15 14 10 13 15 12 7 7 8 9 9 8 9 10 10 10 10 12
11 9 8 8 7 6 5 5 5 4 4 3 3 2 1 3 4 4 4 5 8 8 6 8 12 12 10 11 10 9 6 7 8 8 10 10 10 9 10 9 10 11 11
9 8 7 6 6 6 5 4 4 2 3 3 2 1 1 3 5 10 8 5 5 5 5 3 4 6 6 6 7 6 6 7 8 8 9 11 11 11 11 8 7 9 10
8 7 5 5 5 5 5 5 7 5 6 5 2 1 2 5 9 11 12 12 12 12 6 5 6 6 7 8 9 9 9 8 8 9 10 10 11 11 12 10 9 10 12
8 6 5 5 5 4 4 4 3 5 7 8 8 7 6 8 10 11 11 11 11 10 4 5 6 6 7 8 8 9 10 10 9 9 10 10 10 11 11 12 11 11 12
7 7 6 5 4 4 3 3 2 2 2 3 5 8 8 9 10 11 11 8 6 6 4 5 6 7 8 8 9 9 10 10 9 9 10 10 10 11 11 12 11 12 13
7 5 5 4 4 4 3 3 2 2 2 2 3 5 8 9 9 10 9 4 5 6 6 6 7 7 8 8 8 9 10 10 11 11 11 11 10 11 11 12 12 17 15
5 9 7 4 4 3 3 2 2 2 2 3 4 4 5 4 4 5 5 4 5 6 7 7 8 8 8 8 8 9 9 10 11 11 11 11 11 11 12 14 13 13 13
5 5 7 5 3 2 2 1 1 2 2 3 4 6 8 3 4 6 6 6 6 7 8 8 8 8 8 8 8 9 11 11 11 11 11 11 11 12 11 12 13 13 13
5 4 3 3 2 1 1 1 1 2 3 4 4 5 9 5 5 5 6 7 7 7 7 8 8 8 8 8 9 10 11 12 11 11 12 12 12 12 12 12 12 12 12
5 4 3 2 2 2 2 2 2 3 3 4 5 5 5 5 6 6 7 7 8 8 8 7 9 9 8 10 10 9 11 12 12 13 13 13 12 11 11 12 13 14 13
4 4 3 2 1 1 1 2 3 3 4 4 5 5 5 6 7 8 8 8 8 8 9 9 9 11 14 14 14 14 15 16 16 13 14 12 11 11 11 11 12 13 13
4 3 2 1 0 1 2 3 3 4 4 5 5 6 6 7 7 8 8 8 9 9 10 12 11 12 15 18 18 18 21 24 22 16 10 9 10 11 11 11 11 12 12
3 3 2 1 1 1 2 3 4 4 5 5 5 6 6 7 7 8 8 8 9 10 10 11 14 17 20 19 20 22 24 24 22 20 12 8 9 10 11 10 12 11 12
Wind_Direction
181 164 155 152 146 145 147 147 143 140 142 140 136 132 128 125 122 122 123 128 128 125 126 154 192 195 199 202 199 204 211 208 255 268 251 273 282 287 300 299 299 296 294
156 144 141 137 137 138 138 138 137 136 135 134 131 127 124 122 122 124 125 127 127 129 136 164 227 228 224 223 219 226 232 227 242 276 279 275 274 281 285 288 299 298 296
126 128 127 130 133 134 134 134 133 131 128 126 124 122 120 117 114 112 113 109 104 104 100 226 260 247 247 242 237 241 245 253 245 268 285 277 277 285 289 289 288 286 291
113 119 122 125 126 126 126 126 126 125 122 118 115 113 112 110 108 106 102 96 85 64 32 323 282 258 251 249 247 248 251 260 265 271 283 288 286 285 285 295 301 288 291
106 109 111 113 114 115 115 116 115 113 112 110 108 105 104 105 106 106 102 94 77 33 349 325 307 296 280 273 266 252 245 253 264 272 286 295 297 301 300 299 302 302 291
99 103 107 109 109 108 108 107 105 103 104 104 105 107 105 109 117 114 113 103 83 18 342 336 327 322 318 321 311 303 297 289 287 281 289 294 296 295 296 297 300 304 302
95 98 100 103 102 102 103 102 101 102 101 101 103 109 114 122 127 123 114 115 83 26 355 345 345 338 342 308 302 303 300 298 298 297 291 288 291 292 292 293 293 295 296
92 93 96 98 99 99 99 99 99 100 101 105 113 118 122 139 146 136 121 116 100 5 325 314 308 306 310 305 285 282 273 278 285 286 274 275 279 281 279 291 296 297 291
94 95 96 98 100 100 99 99 100 104 107 111 115 126 137 154 161 150 134 150 208 301 305 313 321 304 310 314 313 296 288 284 294 297 296 298 301 305 306 303 301 302 300
95 96 95 97 100 101 101 102 103 109 114 115 107 108 125 144 162 83 91 164 295 313 314 311 323 321 316 318 313 300 298 294 292 298 302 302 298 296 301 293 283 290 295
98 97 95 96 100 103 102 104 110 108 102 95 88 70 61 55 30 9 8 77 333 325 317 310 308 320 319 319 319 308 301 310 319 313 306 301 298 292 290 279 269 276 284
100 99 99 100 103 106 104 99 97 100 94 88 84 67 43 25 23 14 5 352 342 328 312 299 301 317 323 324 323 315 318 327 323 310 305 303 303 303 301 295 285 274 267
103 101 101 96 92 96 101 100 91 88 92 87 84 71 31 9 357 1 353 345 338 331 308 315 320 326 330 327 320 323 329 322 308 306 305 301 296 291 294 296 293 284 278
106 102 99 97 91 84 86 91 94 94 95 93 89 73 7 339 319 307 305 316 324 318 309 322 333 333 331 324 323 321 313 303 308 304 303 301 301 298 297 296 299 304 301
106 101 96 93 96 87 78 81 94 102 135 137 161 192 275 310 322 341 342 325 321 319 344 352 332 328 328 325 320 314 310 314 312 305 303 304 304 303 301 299 291 297 294
110 101 96 95 91 89 85 65 64 73 70 72 76 21 295 336 343 345 341 343 343 344 352 331 325 323 321 321 320 319 317 313 309 307 303 300 300 301 302 301 295 296 296
115 112 104 100 98 96 94 92 66 36 45 42 27 12 5 355 350 346 344 348 346 350 344 315 311 311 311 311 311 310 309 307 303 300 298 298 298 298 299 300 302 300 298
107 113 111 105 105 103 100 94 84 60 19 353 359 1 358 354 352 349 351 353 340 340 314 304 306 307 308 308 307 306 305 306 304 301 299 297 297 298 299 299 299 298 300
112 112 109 107 102 98 95 89 75 57 25 343 330 340 350 349 350 352 356 341 315 315 312 307 303 303 303 302 301 299 299 300 300 300 299 297 298 298 297 297 298 300 302
117 125 120 110 101 94 88 80 59 28 2 344 331 321 319 340 338 333 332 312 307 307 308 306 304 301 301 299 298 298 300 299 300 299 298 297 297 295 296 297 299 300 300
113 120 119 107 101 102 93 67 26 356 336 326 315 319 337 346 324 316 316 313 308 308 308 306 303 302 300 297 297 297 297 297 296 296 297 298 299 299 298 296 297 298 299
121 118 117 115 105 99 91 43 2 339 328 322 315 321 338 335 312 309 309 309 306 301 300 301 300 298 296 296 296 297 297 296 296 297 298 299 300 299 299 300 302 304 306
122 118 111 100 80 58 53 8 345 329 320 314 314 319 323 321 314 308 307 309 309 308 306 302 301 299 297 296 293 288 288 289 291 292 295 298 299 301 303 305 307 309 312
123 124 122 114 86 32 348 330 326 323 319 313 313 313 312 311 309 308 307 307 307 306 305 303 298 296 298 302 301 296 289 288 290 290 291 296 304 308 308 309 310 310 313
126 129 132 136 129 317 315 314 315 316 316 314 311 311 311 308 305 304 305 305 305 305 304 306 302 301 301 303 302 300 301 305 309 311 307 310 309 309 310 309 310 314 315
139 144 150 167 247 290 298 301 302 303 301 301 301 300 301 300 300 301 304 304 308 309 307 308 304 305 305 305 303 305 311 316 320 324 323 312 312 313 316 315 315 318 317
Height
1420 1420 1422 1425 1428 1433 1437 1441 1445 1449 1453 1457 1461 1466 1470 1473 1477 1480 1483 1485 1487 1488 1488 1489 1488 1487 1486 1484 1482 1481 1479 1476 1470 1466 1465 1462 1459 1455 1451 1447 1443 1439 1435
1415 1415 1418 1421 1424 1428 1432 1437 1441 1445 1449 1453 1458 1462 1467 1471 1475 1478 1480 1482 1484 1485 1485 1484 1484 1482 1481 1479 1477 1475 1473 1470 1465 1459 1457 1454 1451 1448 1443 1439 1435 1431 1427
1411 1412 1414 1417 1421 1425 1429 1433 1437 1441 1445 1450 1455 1460 1465 1469 1473 1476 1478 1480 1481 1481 1480 1480 1479 1477 1475 1473 1471 1469 1466 1463 1460 1455 1450 1447 1443 1440 1435 1431 1427 1423 1419
1408 1410 1412 1415 1419 1423 1426 1430 1435 1439 1443 1448 1454 1460 1465 1469 1471 1474 1476 1477 1477 1477 1476 1475 1473 1472 1470 1467 1465 1463 1460 1457 1454 1450 1445 1441 1437 1433 1429 1424 1417 1414 1410
1407 1409 1411 1415 1418 1422 1425 1429 1434 1438 1444 1449 1454 1460 1464 1468 1470 1472 1473 1474 1473 1473 1472 1470 1468 1466 1464 1462 1460 1457 1454 1451 1448 1444 1439 1435 1431 1427 1423 1418 1412 1406 1401
1408 1410 1412 1415 1418 1422 1425 1429 1434 1440 1446 1451 1456 1460 1464 1466 1468 1469 1470 1470 1470 1469 1467 1465 1463 1461 1459 1456 1454 1452 1450 1447 1443 1439 1434 1430 1425 1422 1417 1412 1407 1400 1393
1410 1412 1415 1417 1420 1424 1428 1433 1438 1443 1449 1454 1458 1461 1463 1465 1466 1467 1467 1467 1466 1464 1462 1460 1458 1455 1453 1450 1447 1445 1443 1441 1439 1435 1429 1425 1420 1416 1412 1406 1402 1396 1389
1414 1416 1419 1421 1425 1429 1434 1438 1443 1448 1452 1455 1458 1461 1463 1464 1464 1464 1464 1463 1462 1460 1458 1455 1452 1449 1447 1444 1441 1439 1436 1434 1432 1428 1424 1419 1415 1411 1407 1402 1396 1389 1383
1419 1421 1424 1427 1430 1435 1439 1443 1447 1451 1454 1457 1459 1461 1462 1462 1462 1462 1461 1459 1458 1455 1453 1450 1447 1444 1441 1439 1437 1433 1430 1427 1425 1421 1417 1414 1410 1406 1401 1396 1390 1383 1375
1424 1426 1430 1433 1436 1440 1444 1447 1450 1453 1456 1458 1459 1460 1461 1461 1460 1459 1457 1455 1453 1450 1448 1445 1442 1439 1436 1434 1431 1427 1423 1420 1417 1413 1410 1407 1403 1399 1395 1391 1385 1378 1371
1429 1432 1435 1439 1442 1445 1448 1451 1454 1456 1457 1458 1459 1459 1460 1459 1458 1456 1454 1451 1448 1445 1443 1440 1437 1434 1432 1429 1426 1422 1419 1416 1411 1407 1404 1400 1397 1393 1389 1385 1380 1374 1367
1435 1438 1441 1444 1447 1449 1452 1454 1456 1457 1458 1459 1459 1459 1458 1456 1455 1452 1450 1448 1445 1441 1438 1435 1432 1430 1427 1424 1420 1417 1415 1411 1407 1403 1399 1395 1391 1386 1382 1378 1374 1368 1362
1441 1444 1446 1448 1451 1453 1455 1457 1457 1458 1458 1458 1458 1457 1455 1453 1451 1449 1446 1444 1440 1437 1434 1431 1429 1425 1422 1419 1417 1413 1410 1406 1402 1398 1394 1389 1385 1381 1376 1371 1366 1360 1355
1446 1448 1450 1453 1454 1456 1457 1458 1458 1458 1458 1457 1456 1454 1452 1450 1448 1445 1443 1440 1437 1434 1431 1428 1425 1422 1419 1416 1413 1410 1407 1403 1399 1394 1389 1385 1380 1375 1370 1365 1358 1352 1344
1451 1453 1454 1456 1457 1458 1459 1459 1458 1457 1457 1455 1454 1452 1450 1447 1445 1443 1440 1436 1434 1431 1428 1425 1422 1419 1416 1413 1410 1407 1403 1399 1395 1391 1385 1380 1375 1370 1364 1359 1353 1346 1339
1455 1456 1457 1458 1459 1459 1459 1458 1457 1456 1455 1453 1451 1450 1447 1445 1442 1440 1437 1434 1431 1428 1425 1422 1419 1416 1413 1409 1406 1403 1399 1396 1391 1386 1381 1376 1370 1365 1359 1353 1348 1341 1335
1458 1458 1459 1459 1459 1459 1458 1457 1456 1455 1453 1451 1449 1447 1445 1442 1440 1437 1434 1431 1428 1426 1423 1420 1417 1414 1410 1407 1403 1399 1396 1392 1387 1383 1377 1372 1367 1360 1354 1348 1342 1336 1330
1460 1460 1460 1460 1459 1458 1458 1456 1455 1453 1452 1449 1447 1445 1442 1440 1437 1434 1431 1429 1426 1424 1421 1418 1414 1411 1408 1404 1401 1397 1392 1388 1384 1379 1374 1369 1363 1357 1350 1344 1338 1332 1325
1461 1460 1460 1459 1459 1458 1456 1455 1453 1451 1449 1447 1445 1443 1440 1438 1435 1432 1429 1427 1424 1421 1418 1415 1412 1409 1405 1402 1398 1394 1390 1385 1380 1375 1370 1365 1359 1353 1346 1340 1334 1328 1322
1461 1460 1460 1459 1458 1457 1455 1453 1451 1449 1447 1445 1443 1440 1438 1435 1433 1430 1428 1425 1422 1419 1416 1413 1410 1407 1403 1399 1395 1391 1387 1382 1377 1372 1366 1361 1355 1350 1343 1337 1331 1325 1318
1460 1460 1459 1458 1457 1455 1454 1452 1450 1448 1445 1443 1441 1438 1436 1433 1430 1428 1425 1423 1420 1417 1413 1410 1407 1404 1400 1396 1392 1388 1384 1379 1374 1369 1363 1358 1352 1346 1340 1334 1328 1322 1315
1460 1459 1458 1457 1455 1454 1452 1450 1448 1446 1443 1441 1438 1436 1434 1431 1428 1426 1423 1421 1418 1415 1411 1408 1405 1401 1398 1394 1389 1385 1380 1376 1371 1366 1360 1355 1349 1343 1337 1331 1325 1319 1313
1459 1458 1457 1455 1454 1452 1450 1448 1446 1444 1441 1439 1436 1434 1431 1429 1426 1424 1421 1418 1416 1413 1409 1406 1402 1399 1395 1391 1387 1383 1378 1373 1369 1364 1358 1352 1347 1341 1335 1329 1323 1317 1311
1457 1456 1455 1454 1452 1450 1448 1446 1444 1441 1439 1437 1434 1432 1429 1427 1424 1422 1419 1416 1413 1410 1407 1404 1400 1396 1393 1389 1385 1381 1376 1372 1367 1362 1357 1351 1346 1340 1334 1328 1322 1316 1309
1456 1455 1453 1452 1450 1448 1446 1444 1441 1439 1437 1434 1432 1429 1427 1424 1422 1419 1417 1414 1411 1408 1405 1401 1397 1394 1390 1386 1382 1378 1374 1369 1365 1360 1355 1350 1344 1338 1332 1326 1320 1314 1308
1454 1453 1451 1449 1447 1445 1443 1441 1439 1437 1434 1432 1429 1427 1424 1422 1420 1417 1414 1411 1408 1405 1402 1399 1395 1391 1387 1383 1379 1375 1371 1367 1362 1358 1353 1347 1342 1336 1330 1325 1319 1313 1307